Regional Weather Roundup
Issued by NWS

Home | Current Version | Previous Version | Graphics & Text | Print | Product List | Glossary On
Versions: 1 2 3 4 5 6 7 8 9 10 11 12 13 14 15 16 17 18 19 20 21 22 23 24 25 26 27 28 29 30 31 32 33 34 35 36 37 38 39 40 41 42 43 44 45 46 47 48 49 50
000
ASUS43 KLSX 300559
RWRMO

WEATHER SUMMARY FOR MISSOURI
NATIONAL WEATHER SERVICE SPRINGFIELD MO
100 AM CDT TUE SEP 30 2014

NOTE: "FAIR" INDICATES FEW OR NO CLOUDS BELOW 12,000 FEET WITH NO
       SIGNIFICANT WEATHER AND/OR OBSTRUCTIONS TO VISIBILITY.
       CURRENT SKY AND/OR WEATHER CONDITIONS ARE NOT AVAILABLE FOR
       CHILLICOTHE AND FARMINGTON.

MOZ001>031-035>038-043-044-053-054-300700-
...NORTHERN AND WESTERN MISSOURI...

CITY           SKY/WX    TMP DP  RH WIND       PRES   REMARKS
KANSAS CTY INT PTCLDY    66  58  75 S6        29.97S
6HR MIN TEMP:  66; 6HR MAX TEMP:  78;

KANSAS C DTWN  CLEAR     68  62  81 CALM      29.96S
6HR MIN TEMP:  68; 6HR MAX TEMP:  80;

LEE`S SUMMIT   CLEAR     66  58  75 CALM      29.97S
6HR MIN TEMP:  66; 6HR MAX TEMP:  78;

ST JOSEPH      PTCLDY    58  55  90 CALM      29.97R
6HR MIN TEMP:  58; 6HR MAX TEMP:  76;

CHILLICOTHE      N/A     60  57  89 CALM      29.98S
6HR MIN TEMP:  60; 6HR MAX TEMP:  73;

KIRKSVILLE     CLEAR     57  55  93 CALM      29.98R FOG
6HR MIN TEMP:  56; 6HR MAX TEMP:  70;


$$
MOZ066>068-077>081-088>096-101>105-300700-
...SOUTHWEST MISSOURI...

CITY           SKY/WX    TMP DP  RH WIND       PRES   REMARKS
SPRINGFIELD    CLEAR     61  56  83 S5        29.98R
6HR MIN TEMP:  61; 6HR MAX TEMP:  78;

JOPLIN         CLEAR     67  58  72 SE5       29.96F
6HR MIN TEMP:  64; 6HR MAX TEMP:  78;


$$
MOZ032>034-039>042-045>050-055>058-069>072-300700-
...CENTRAL MISSOURI...

CITY           SKY/WX    TMP DP  RH WIND       PRES   REMARKS
COLUMBIA       CLEAR     68  56  65 SE5       29.97S
6HR MIN TEMP:  63; 6HR MAX TEMP:  79;

JEFFERSON CITY CLEAR     60  57  89 CALM      29.96S
6HR MIN TEMP:  60; 6HR MAX TEMP:  75;

ROLLA          CLEAR     66  53  63 SE9       29.97S
6HR MIN TEMP:  63; 6HR MAX TEMP:  73;

SEDALIA        CLEAR     62  57  83 CALM      29.97S
6HR MIN TEMP:  62; 6HR MAX TEMP:  78;

OSAGE BEACH    CLEAR     59  55  88 CALM      29.97S

$$
MOZ051-052-059>065-300700-
...EAST CENTRAL MISSOURI...

CITY           SKY/WX    TMP DP  RH WIND       PRES   REMARKS
ST LOUIS INTL  CLEAR     68  58  70 CALM      29.96S
6HR MIN TEMP:  67; 6HR MAX TEMP:  80;

SPIRIT OF STL  CLEAR     58  56  93 CALM      29.95S
6HR MIN TEMP:  58; 6HR MAX TEMP:  71;

ST CHARLES     PTCLDY    60  58  92 CALM      29.95R FOG
6HR MIN TEMP:  60; 6HR MAX TEMP:  76;


$$
MOZ072>076-082>087-097>100-106>115-300700-
...SOUTH CENTRAL AND SOUTHEAST MISSOURI...

CITY           SKY/WX    TMP DP  RH WIND       PRES   REMARKS
CAPE GIRARDEAU CLEAR     55  55 100 CALM      29.95F FOG
6HR MIN TEMP:  55; 6HR MAX TEMP:  71;

FARMINGTON     CLEAR     57  55  94 CALM      29.99F
6HR MIN TEMP:  57; 6HR MAX TEMP:  75;

POPLAR BLUFF   CLEAR     59  55  87 CALM      29.94F
6HR MIN TEMP:  59; 6HR MAX TEMP:  74;

WEST PLAINS    CLEAR     60  57  89 CALM      29.99F
6HR MIN TEMP:  60; 6HR MAX TEMP:  74;


$$



USA.gov is the U.S. government's official web portal to all federal, state and local government web resources and services.